This is the latest recevied weather packets stored in our database for station/object PY1AU-13. If no packets are shown the sender has not sent any weather packets the latest 10 day(s).
| Time | Temp. | Humidity | Pressure | Rain* | Wind** | Luminosity | Snow |
|---|---|---|---|---|---|---|---|
| 1777730921 | 28.89° C | 80% | 1016 hPa | - | - | - | - |
| 1777730621 | 28.89° C | 89% | 1016.1 hPa | - | - | - | - |
| 1777730321 | 28.89° C | 88% | 1016.1 hPa | - | - | - | - |
| 1777730022 | 28.89° C | 89% | 1016.2 hPa | - | - | - | - |
| 1777729721 | 28.89° C | 90% | 1016.3 hPa | - | - | - | - |
| 1777729421 | 28.33° C | 90% | 1016.3 hPa | - | - | - | - |
| 1777729121 | 28.33° C | 91% | 1016.5 hPa | - | - | - | - |
| 1777728821 | 28.33° C | 95% | 1016.5 hPa | - | - | - | - |
| 1777728520 | 28.33° C | 95% | 1016.7 hPa | - | - | - | - |
| 1777728221 | 28.33° C | 97% | 1016.7 hPa | - | - | - | - |
| 1777727921 | 28.33° C | 98% | 1016.9 hPa | - | - | - | - |
| 1777727620 | 28.33° C | 98% | 1017 hPa | - | - | - | - |
| 1777727320 | 28.33° C | 98% | 1017 hPa | - | - | - | - |
| 1777727020 | 28.33° C | 98% | 1017.1 hPa | - | - | - | - |
| 1777726721 | 28.33° C | 98% | 1017.2 hPa | - | - | - | - |
| 1777726420 | 28.33° C | 98% | 1017.2 hPa | - | - | - | - |
| 1777726121 | 28.33° C | 99% | 1017.3 hPa | - | - | - | - |
| 1777725820 | 27.78° C | 98% | 1017.3 hPa | - | - | - | - |
| 1777725521 | 27.78° C | 99% | 1017.3 hPa | - | - | - | - |
| 1777725221 | 27.78° C | 98% | 1017.3 hPa | - | - | - | - |
| 1777724921 | 27.78° C | 98% | 1017.4 hPa | - | - | - | - |
| 1777724621 | 27.78° C | 97% | 1017.5 hPa | - | - | - | - |
| 1777724320 | 27.78° C | 97% | 1017.5 hPa | - | - | - | - |
| 1777724021 | 27.78° C | 99% | 1017.5 hPa | - | - | - | - |
| 1777723721 | 27.78° C | 95% | 1017.4 hPa | - | - | - | - |
* Rain since midnight (hover to see other rain measurements)
** Current wind speed in m/s (hover to see current wind gust speed)